Find Kosmos-1433

NORAD ID: 13765 Int'l Des: 1983-002 Owner: GUKOS Country: SU operational
LEOCIRCULAR

Live-Position

3D-Globus wird geladen...

Über Kosmos-1433

Beschreibung wird geladen...

Nächste Überflüge

Passes for default location (London). Set your location on the main map for personalized predictions.

Höhenverlauf

Loading altitude history...

Zweizeiliger Elementsatz

1 13765U 83002E 26122.25571884 -.00000011 00000-0 33466-4 0 9997
2 13765 74.0234 314.7986 0013489 34.9366 78.2920 12.51950012978365
Epoch: 2. Mai 2026 • Age: 11 hours

Aktueller Status

Höhe 1448.2 km
Geschwindigkeit 7.14 km/s
Subsatellitenpunkt 11.69°N, 159.64°W
Startdatum 19. Jan. 1983
Alter 43.2 years
Typ other

Technische Details

Klassifizierung Payload
Masse 60.00 kg
Trockenmasse 60.00 kg
Gesamtmasse 60.00 kg
Länge 0.80 m
Durchmesser 0.80 m
Spannweite 0.80 m
Form Poly
Hersteller NPOPM
Bus-Typ Strela-1 11F625
Phasenstatus In Orbit
Besitzer/Staat GUKOS/SU

Most Searched